Regional Weather Roundup
Issued by NWS

Home | Current Version | Previous Version | Text Only | Print | Product List | Glossary Off
Versions: 1 2 3 4 5 6 7 8 9 10 11 12 13 14 15 16 17 18 19 20 21 22 23 24 25 26 27 28 29 30 31 32 33 34 35 36 37 38 39 40 41 42 43 44 45 46 47 48 49 50

000
ASUS43 KBIS 051410
RWRND

NORTH DAKOTA REGIONAL WEATHER ROUNDUP
NATIONAL WEATHER SERVICE BISMARCK ND
900 AM CDT TUE MAY 05 2015

NOTE: "FAIR" INDICATES FEW OR NO CLOUDS BELOW 12,000 FEET WITH NO
SIGNIFICANT WEATHER AND/OR OBSTRUCTIONS TO VISIBILITY.


NDZ001>003-009>011-017-051500-
NORTHWEST NORTH DAKOTA

CITY           SKY/WX    TMP DP  RH WIND       PRES   REMARKS
WILLISTON      SUNNY     57  29  34 S8        29.94F
MINOT          CLOUDY    58  30  34 SE16G25   30.01F
MINOT AFB      PTSUNNY   60  32  34 S18G25    30.00F
$$

NDZ018>021-031>035-040>046-051500-
SOUTHWEST NORTH DAKOTA

CITY           SKY/WX    TMP DP  RH WIND       PRES   REMARKS
BISMARCK       MOSUNNY   57  35  43 SE14      30.06S
DICKINSON      SUNNY     54  32  43 S21G28    29.95F
GARRISON         N/A     57  32  38 S17       30.01S
HETTINGER ARPT MOSUNNY   54  32  43 SE16      30.00S
$$

NDZ004>008-012>016-024-026-027-054-051500-
NORTHEAST NORTH DAKOTA

CITY           SKY/WX    TMP DP  RH WIND       PRES   REMARKS
GRAND FORKS    MOSUNNY   59  31  34 S9        30.17F
GRND FRKS AFB  MOSUNNY   60  26  27 S18       30.16F
DEVILS LAKE    PTSUNNY   57  34  41 S17       30.11F
$$

NDZ022-023-025-028>030-036>039-047>053-051500-
SOUTHEAST NORTH DAKOTA

CITY           SKY/WX    TMP DP  RH WIND       PRES   REMARKS
FARGO          SUNNY     61  26  26 SE14      30.17F
JAMESTOWN      MOSUNNY   59  30  33 S15G24    30.12F
$$




USA.gov is the U.S. government's official web portal to all federal, state and local government web resources and services.